Lapse_Rate
4.5 4.8 5.0 5.0 4.9 4.7 4.8 4.9 5.1 4.8 4.9 5.0 4.9 5.1 4.8 4.7 4.7 4.7 4.6 4.7 4.5 4.4 4.4 4.8 4.8 4.7 4.7 4.9 4.7 4.5 4.4 4.4 4.6 4.5 4.2 4.1 3.9 3.9 3.7 3.8 4.4 4.5 5.0 3.9 3.8 2.4 3.9 5.7 5.2 4.9 4.6 4.1 4.2 4.4
5.1 5.1 4.9 4.8 4.6 4.4 4.6 5.0 4.8 5.0 4.9 4.8 4.6 4.8 4.9 5.0 5.0 4.8 4.7 4.6 4.4 4.4 4.2 4.3 4.3 4.1 4.6 4.5 4.4 4.4 4.6 4.8 4.7 4.4 4.3 4.1 4.0 4.0 4.1 3.8 4.4 4.4 5.4 4.8 4.6 4.8 5.3 5.2 4.8 4.5 4.6 4.0 4.7 5.0
5.0 5.1 5.0 5.0 5.1 5.1 5.0 4.8 4.9 5.0 5.0 5.0 5.2 5.3 5.3 5.1 5.1 5.0 4.8 4.8 4.5 4.0 4.0 3.9 3.7 3.9 4.2 4.5 4.6 4.5 4.7 4.9 4.9 4.5 4.4 4.3 4.4 4.6 4.2 4.2 4.5 4.8 4.8 4.5 4.1 5.1 5.1 4.7 4.5 4.2 4.4 4.6 5.0 5.4
4.8 4.8 4.9 5.0 5.0 5.0 5.0 5.1 5.1 5.1 5.1 5.1 5.0 5.2 5.5 5.4 5.2 5.2 5.0 5.0 4.9 4.5 3.9 3.5 3.9 3.5 3.9 4.2 5.0 4.9 4.7 4.7 4.8 5.1 4.7 4.5 4.7 4.6 4.1 4.2 4.4 5.3 4.8 5.7 4.6 5.7 5.7 4.7 4.2 4.7 4.7 5.1 5.5 5.8
4.5 4.7 4.6 4.6 4.9 4.8 4.7 4.8 4.7 4.9 4.9 4.8 4.8 4.9 5.1 5.2 5.0 5.1 5.4 5.4 5.2 4.9 4.0 3.1 3.3 3.2 3.5 4.1 4.2 4.4 4.3 4.7 4.9 4.6 4.6 4.9 4.8 4.8 4.4 4.4 5.6 7.0 6.1 5.1 5.0 5.5 4.7 5.3 4.8 4.9 5.1 5.5 5.9 6.1
4.9 4.7 4.8 4.5 4.6 4.7 4.6 4.7 4.6 4.8 4.8 4.8 5.2 5.3 5.3 5.4 5.3 5.2 5.2 5.4 5.4 5.0 4.2 3.5 3.5 3.5 4.3 5.6 5.2 5.1 4.6 4.2 4.3 4.4 4.1 4.3 4.8 4.9 4.7 4.7 7.2 6.7 5.6 5.1 5.6 5.1 4.7 5.0 4.9 5.2 5.6 6.0 6.1 6.3
4.5 4.7 4.8 4.9 5.1 5.0 4.7 4.7 4.9 5.1 5.0 5.3 5.5 5.5 5.5 5.3 5.3 5.3 5.1 5.0 5.1 4.8 4.2 3.2 3.0 3.6 5.1 5.1 5.6 5.5 5.2 5.2 5.0 4.7 4.4 4.7 4.8 4.5 4.2 5.1 7.0 6.1 5.1 5.5 5.1 5.3 5.6 5.2 5.2 5.6 6.0 6.2 6.3 6.5
4.5 4.4 4.3 4.5 4.6 4.7 4.8 4.9 5.0 5.0 4.8 4.8 4.9 5.0 5.0 5.0 5.0 5.2 5.0 4.8 4.7 4.5 4.0 3.7 4.0 5.0 5.3 5.2 5.1 5.1 5.3 5.1 4.6 4.4 4.5 4.5 4.4 4.3 4.2 7.4 6.5 5.4 5.3 5.3 5.1 5.1 4.9 4.9 5.4 5.9 6.2 6.3 6.4 6.8
4.5 4.6 4.5 4.4 4.5 4.6 4.7 4.8 4.8 4.7 4.8 4.7 4.7 4.7 4.8 4.8 4.8 4.9 4.9 4.9 4.7 4.3 3.9 3.9 4.8 5.1 5.2 5.4 5.0 4.8 4.6 4.4 4.5 4.6 4.7 4.5 4.5 4.4 6.8 6.3 6.3 5.4 5.3 4.9 4.9 4.9 4.8 5.1 5.3 5.7 5.8 6.0 6.3 6.7
4.5 4.5 4.6 4.6 4.7 4.7 4.7 4.8 4.9 4.8 4.8 4.7 4.7 4.8 4.9 5.3 5.3 5.3 5.2 5.1 5.0 4.9 4.7 5.1 5.7 5.5 5.6 5.3 4.6 4.2 4.1 4.2 4.5 4.5 4.2 4.4 5.1 6.1 6.3 5.7 6.0 5.0 4.8 4.9 4.6 4.8 5.1 5.6 5.4 5.3 5.4 5.7 6.0 6.3
4.8 4.9 5.0 5.1 5.1 5.1 5.0 5.0 4.8 4.6 4.9 4.9 4.8 5.0 4.9 5.0 5.2 5.2 5.2 5.1 5.0 4.9 5.4 6.1 6.5 6.5 5.6 5.3 4.9 4.4 4.4 4.6 4.4 4.7 4.5 4.6 5.0 6.5 6.2 5.7 5.6 5.4 5.5 5.2 5.0 5.2 5.2 4.9 4.5 4.8 5.4 5.8 6.1 6.3
5.2 5.1 5.1 5.2 5.2 5.2 5.1 5.0 4.8 4.6 4.6 4.6 4.6 4.7 5.0 5.0 4.9 5.0 4.7 4.8 5.2 5.6 6.0 6.2 6.2 6.0 6.1 5.9 5.2 4.8 4.6 4.6 5.0 5.6 4.9 5.1 6.4 6.7 6.3 5.6 5.7 5.7 5.3 5.4 5.5 5.4 5.2 5.2 4.9 4.9 5.6 5.9 6.2 6.3
5.6 5.6 5.4 5.3 5.1 5.1 5.1 4.9 4.7 4.6 4.6 4.4 4.3 4.5 4.6 4.7 5.1 4.5 4.7 5.6 6.3 6.2 6.3 6.5 6.4 6.1 5.7 5.4 5.2 5.2 5.0 5.1 5.5 5.0 5.1 5.6 6.3 6.2 6.1 6.0 5.8 5.8 5.6 5.3 5.1 4.8 4.4 5.0 5.2 5.5 5.7 6.0 6.3 6.4
5.9 5.9 6.0 5.8 5.5 5.3 5.2 5.1 4.5 4.6 4.4 4.0 4.0 4.1 4.7 5.0 4.7 5.8 6.2 6.3 6.4 6.4 6.4 6.2 5.9 5.7 5.7 5.6 5.8 5.9 5.6 5.4 5.3 5.3 5.6 6.2 6.3 6.5 6.1 5.7 6.1 6.1 6.1 6.0 6.0 5.9 5.5 5.6 5.9 6.3 6.4 6.0 6.2 6.5
5.8 5.7 5.7 5.6 5.6 5.5 5.4 5.2 4.8 4.6 4.6 4.7 4.7 4.5 4.7 5.4 5.7 6.0 6.2 6.2 6.2 6.2 5.9 5.9 5.8 5.7 5.7 5.8 6.0 5.9 5.8 6.0 5.8 6.0 6.7 6.6 6.5 6.6 6.7 6.6 6.3 6.1 6.2 6.2 6.3 5.6 6.0 6.2 6.4 7.0 7.1 6.8 6.6 6.8
5.8 5.6 5.8 5.7 5.5 5.4 5.2 4.7 4.9 4.6 4.8 4.9 4.8 4.7 4.8 5.3 5.5 5.6 5.6 5.8 6.1 6.0 5.5 5.4 5.6 5.5 5.5 5.8 6.0 5.8 5.9 5.6 6.3 6.8 6.6 6.6 6.7 6.6 6.8 6.3 6.1 6.8 7.0 6.8 6.5 6.2 6.3 6.7 7.3 7.6 7.8 7.4 7.1 7.2
5.4 5.8 5.9 5.5 5.4 5.3 5.3 5.2 5.2 5.3 5.6 5.2 4.7 4.8 4.9 5.1 5.4 5.5 5.4 5.5 5.7 5.8 5.8 5.8 6.0 5.9 6.3 6.0 5.6 5.6 6.2 6.9 7.4 7.2 6.9 7.0 6.8 6.8 7.5 7.8 7.7 7.8 7.6 7.4 7.3 7.2 7.2 7.4 7.7 7.2 7.8 7.8 7.5 7.2
6.5 6.5 6.4 6.3 6.2 6.1 6.0 6.2 6.0 5.9 5.8 5.5 5.3 5.3 5.5 5.8 5.7 5.4 5.7 6.2 6.5 6.5 6.5 6.3 6.4 6.3 6.4 6.3 6.3 6.7 7.4 8.1 8.0 7.9 7.7 7.4 8.0 8.5 8.5 8.3 7.8 7.7 8.0 8.2 8.0 7.8 7.7 7.5 7.6 7.5 7.3 7.7 7.5 7.1
6.6 6.5 6.5 6.4 6.3 6.3 6.4 6.4 6.3 6.2 6.1 6.3 6.1 5.9 6.2 6.2 6.2 6.4 6.4 6.5 6.6 6.9 7.1 6.8 7.0 6.8 6.8 7.6 8.4 8.5 8.6 8.5 8.3 8.0 8.1 8.0 8.2 8.2 8.0 8.0 8.0 8.2 8.3 8.1 7.8 7.6 7.6 7.6 7.7 7.7 7.4 7.5 7.2 7.1
6.9 6.7 6.8 7.1 7.2 7.2 7.2 7.2 7.5 7.3 6.6 6.5 7.0 7.0 7.6 7.5 7.6 7.8 8.0 8.0 8.1 8.0 7.6 7.6 8.0 8.7 9.0 9.0 8.9 8.7 8.4 8.3 8.3 8.2 8.1 8.4 8.0 8.0 8.0 8.1 8.1 8.2 8.0 7.9 7.7 7.7 7.6 7.6 7.7 7.6 7.5 7.3 7.0 6.8
7.3 7.6 7.4 7.4 7.4 8.0 8.0 8.1 8.3 8.2 8.0 7.8 8.1 8.3 8.4 8.3 8.5 8.6 8.6 8.5 8.2 8.3 8.4 8.6 8.9 8.9 8.8 8.5 8.3 8.4 8.5 8.5 8.3 8.0 8.1 7.7 7.9 8.0 8.1 8.0 7.8 7.7 7.7 7.6 7.6 7.7 7.6 7.5 7.6 7.6 7.3 7.1 7.0 6.5
8.1 8.0 8.0 7.9 7.5 7.4 7.6 7.8 8.1 8.2 8.3 8.2 8.1 8.4 8.3 8.0 8.2 8.4 8.5 8.4 8.5 8.8 8.7 8.9 8.8 8.6 8.5 8.5 8.4 8.4 8.3 8.3 8.2 8.0 7.7 7.8 8.0 7.9 8.0 7.9 7.8 7.9 7.9 7.6 7.4 7.3 7.4 7.4 7.4 7.3 7.1 7.1 6.8 6.2
8.3 8.1 7.9 7.8 8.0 7.5 7.4 7.7 8.0 8.0 7.5 7.7 7.9 7.8 7.9 7.8 7.9 8.2 8.1 8.5 8.7 8.8 8.7 8.7 8.5 8.5 8.5 8.6 8.4 8.3 8.2 8.1 7.9 7.8 8.0 8.0 8.0 8.0 7.8 7.7 7.7 7.7 7.7 7.6 7.5 7.4 7.2 7.0 6.9 7.0 6.9 6.8 6.4 6.0
8.2 7.8 7.3 7.6 7.7 7.6 7.8 7.6 7.6 7.6 7.6 7.8 7.8 8.0 8.1 8.1 8.1 8.1 8.0 8.5 8.4 8.3 8.1 8.3 8.5 8.7 8.5 8.4 8.3 8.1 8.0 7.9 8.0 7.9 7.8 7.8 7.9 7.9 7.7 7.5 7.4 7.5 7.4 7.5 7.6 7.5 7.3 7.2 6.9 6.9 6.6 6.4 5.8 5.5
7.5 7.6 7.3 7.7 7.7 7.5 7.5 7.6 7.4 7.5 7.7 7.7 7.7 7.8 7.8 7.9 8.0 7.7 8.1 8.4 8.3 8.3 8.3 8.5 8.6 8.5 8.3 8.2 8.0 8.0 8.0 8.0 7.9 7.9 7.8 7.8 7.7 7.7 7.8 7.6 7.4 7.2 6.8 7.2 7.4 7.4 7.3 7.1 6.9 6.6 6.3 6.1 5.6 5.4
7.5 7.7 7.7 7.6 7.7 7.5 7.5 7.4 7.3 7.4 7.8 7.7 7.8 7.8 7.6 7.8 7.7 7.8 8.1 8.3 8.5 8.6 8.6 8.5 8.2 8.1 8.1 8.0 7.9 7.9 7.9 7.9 7.9 7.9 7.8 7.6 7.5 7.4 7.4 7.4 7.5 7.4 6.8 6.5 6.8 6.9 6.9 6.8 6.6 6.5 6.3 5.9 5.5 5.1
7.5 7.7 7.9 7.9 7.8 7.6 7.5 7.8 7.9 7.9 7.8 7.8 7.9 7.9 7.6 7.6 7.7 7.8 8.4 8.6 8.5 8.4 8.4 8.2 8.1 8.1 8.0 7.9 7.8 7.8 7.8 7.8 7.7 7.6 7.5 7.3 7.1 6.9 6.9 7.0 7.1 6.9 6.8 6.6 6.2 6.3 6.6 6.5 6.3 6.2 6.0 5.8 5.4 5.0
7.3 7.4 7.2 7.3 7.5 7.6 7.6 7.6 7.5 7.5 7.5 7.6 7.6 7.8 7.8 7.8 7.9 8.3 8.3 8.2 8.1 8.1 8.1 8.1 8.0 7.9 7.9 7.9 8.0 7.9 7.7 7.6 7.3 7.1 7.0 6.6 6.1 5.8 5.6 5.5 5.7 6.1 6.4 6.5 6.3 6.1 6.0 6.0 5.9 5.8 5.6 5.6 5.3 4.8
7.3 7.1 7.1 7.1 7.2 7.3 7.4 7.5 7.5 7.5 7.6 7.6 7.7 7.7 7.7 7.7 7.8 7.9 7.8 7.9 7.9 7.9 7.8 7.8 7.8 7.8 7.8 7.9 7.8 7.6 7.4 7.1 6.9 6.7 6.5 6.4 6.3 6.0 5.6 5.3 5.2 5.3 5.5 5.7 5.6 5.9 5.9 5.8 5.7 5.6 5.5 5.5 5.1 4.8
7.0 6.9 6.7 6.7 6.6 6.8 7.0 7.2 7.3 7.4 7.4 7.4 7.5 7.5 7.5 7.5 7.5 7.5 7.5 7.5 7.5 7.5 7.5 7.6 7.5 7.5 7.5 7.3 7.1 6.9 6.7 6.4 6.2 6.0 5.9 5.7 5.8 5.7 5.8 5.7 5.5 5.3 5.2 5.3 5.3 5.3 5.2 5.4 5.4 5.4 5.3 5.5 5.0 4.6
6.6 6.6 6.5 6.5 6.5 6.7 6.6 6.6 6.7 6.7 6.9 7.0 7.1 7.1 7.1 7.2 7.2 7.2 7.2 7.2 7.3 7.3 7.3 7.4 7.3 7.1 6.9 6.7 6.4 6.1 5.8 5.6 5.2 4.9 4.7 4.7 4.7 4.7 4.8 4.9 5.0 5.1 5.1 5.0 5.0 5.0 5.0 5.0 4.9 4.9 5.0 4.8 4.6 4.5
6.3 6.3 6.1 6.2 6.3 6.2 6.2 6.2 6.3 6.4 6.4 6.5 6.6 6.6 6.6 6.6 6.5 6.4 6.5 6.7 6.7 6.8 6.6 6.5 6.3 6.1 6.0 5.8 5.7 5.5 5.3 5.1 4.8 4.5 4.4 4.3 4.5 4.5 4.4 4.5 4.6 4.7 4.8 4.8 4.7 4.7 4.8 4.8 4.7 4.5 4.4 4.4 4.5 4.6
6.1 5.9 5.8 5.8 5.8 5.7 5.7 5.5 5.6 5.7 5.8 5.8 5.9 5.9 5.9 6.0 5.9 5.9 6.0 5.9 5.7 5.6 5.6 5.5 5.3 5.2 5.1 4.9 4.8 4.6 4.4 4.3 4.3 4.2 4.2 4.2 4.2 4.2 4.4 4.4 4.5 4.7 4.9 4.9 4.8 4.8 4.8 4.9 5.0 5.0 5.0 5.0 4.9 4.9
Wind_Speed
5 5 6 7 7 8 9 9 10 12 12 12 12 14 16 17 9 10 1 5 3 3 3 8 8 5 3 3 5 4 2 2 1 3 4 4 4 3 3 4 6 8 6 6 5 6 10 6 5 6 14 19 19 23
4 4 6 6 6 6 7 7 8 10 10 12 12 12 13 17 15 14 2 4 5 2 3 2 4 2 4 6 5 5 2 4 5 3 3 1 4 3 6 5 4 5 8 5 11 9 7 8 14 16 18 19 21 18
2 3 3 4 5 6 7 8 8 8 10 11 12 13 14 14 15 14 2 4 3 1 3 1 6 1 1 2 2 5 3 5 4 1 2 1 6 4 5 7 5 7 6 7 7 10 22 18 21 20 15 15 20 22
4 5 5 5 5 5 5 6 8 9 10 11 12 13 14 14 13 10 3 5 1 2 2 2 1 2 4 3 1 1 3 4 4 1 2 3 3 6 4 3 6 7 1 15 17 21 26 10 10 23 24 23 24 21
7 7 7 8 7 7 7 7 7 8 10 11 13 14 14 13 16 6 4 8 3 2 2 2 1 2 3 0 2 2 3 4 2 2 3 4 2 1 2 2 6 7 8 6 14 18 16 22 23 26 23 23 17 19
9 9 9 9 9 9 9 8 8 7 9 12 14 12 15 9 3 1 2 1 7 2 2 2 1 1 3 3 3 2 2 2 2 3 3 2 1 2 4 5 6 9 8 15 16 16 17 22 23 24 15 23 20 17
10 10 10 10 11 11 11 10 8 7 8 8 8 15 15 4 1 1 1 2 3 4 1 3 2 1 2 1 2 1 0 1 2 2 3 2 2 3 3 10 34 9 2 7 12 11 11 7 13 23 20 20 18 14
12 12 12 12 12 12 12 11 9 7 7 9 10 9 8 4 4 1 5 3 2 1 1 3 2 2 2 2 1 1 1 0 2 2 1 2 2 2 6 19 11 5 6 9 5 7 15 18 17 18 15 12 17 15
15 14 14 13 13 12 11 9 10 7 6 9 10 6 1 3 1 1 5 3 3 1 3 2 3 1 2 2 2 1 1 3 1 3 2 3 3 6 15 9 2 5 5 11 14 13 11 11 17 18 16 14 14 15
15 15 14 13 12 12 12 11 9 7 5 5 3 2 1 1 7 6 2 1 1 2 2 3 0 2 4 2 1 2 1 2 3 2 3 4 5 15 17 10 6 12 8 2 5 10 13 17 18 19 19 15 12 12
18 17 14 13 14 13 12 10 10 4 2 2 1 2 1 6 1 1 2 3 3 3 3 2 4 3 5 3 4 4 2 2 2 2 3 2 4 5 3 4 3 5 6 7 8 12 12 13 15 17 20 16 14 11
19 18 16 15 15 14 13 12 12 4 2 2 3 1 0 1 1 3 3 2 4 4 2 3 3 1 2 2 3 3 2 2 5 4 2 4 5 4 4 4 5 5 7 10 7 11 13 12 10 11 13 15 12 7
20 19 18 17 16 15 14 14 15 11 13 2 2 1 1 1 5 7 7 4 3 4 4 3 2 2 2 2 1 2 5 5 3 3 5 5 2 5 6 5 8 8 8 7 11 9 11 12 11 6 11 10 9 6
19 19 19 18 17 16 16 16 11 18 3 3 5 5 5 5 6 6 4 2 1 1 4 4 3 2 2 3 2 4 2 3 3 4 7 3 4 6 7 5 3 11 12 12 11 10 13 12 11 9 9 8 7 8
21 22 21 21 20 19 17 17 13 6 3 4 4 6 9 4 1 2 2 2 2 3 4 3 2 2 2 3 3 1 3 6 6 5 3 5 8 8 9 8 9 12 10 10 10 9 12 11 11 10 8 8 7 8
23 23 20 22 21 20 20 17 6 2 2 4 7 5 2 0 2 2 3 3 4 4 2 2 2 1 6 3 5 8 3 6 4 4 5 8 10 9 10 9 12 12 10 12 12 12 10 10 10 11 8 8 7 9
25 7 15 21 22 23 23 3 2 6 5 5 5 3 3 1 3 4 5 4 6 5 4 3 5 11 1 4 4 4 6 11 10 9 9 9 10 14 15 12 11 10 11 12 12 11 11 10 8 7 12 10 9 9
14 18 21 24 21 13 2 7 5 6 8 4 4 4 4 4 8 4 5 5 6 5 4 5 2 6 5 5 8 6 6 9 10 11 11 14 16 14 9 11 11 11 12 13 12 11 11 11 10 9 10 10 8 8
18 20 23 27 21 4 5 7 5 5 7 4 6 3 4 6 6 12 4 7 5 2 3 3 6 4 7 7 11 11 11 11 11 11 11 14 14 9 8 6 7 11 13 14 14 12 12 12 11 8 7 6 7 6
27 29 30 29 23 5 5 4 4 5 7 7 3 11 11 11 11 9 4 6 5 3 5 5 11 15 15 15 13 12 11 9 6 9 13 13 8 9 10 10 10 13 12 14 12 15 11 9 7 7 7 7 7 7
16 13 20 20 5 8 4 3 4 3 3 4 8 10 4 1 5 6 3 4 3 5 9 11 14 16 16 10 3 3 2 3 3 4 7 10 9 9 10 9 10 9 10 10 10 10 12 9 9 6 7 7 6 5
4 10 1 9 7 7 4 1 3 3 2 1 2 2 3 8 8 5 4 5 5 12 9 12 11 7 3 3 3 3 4 4 4 6 10 11 9 9 9 8 9 10 9 9 9 10 10 9 7 7 6 5 7 5
6 4 4 4 5 6 4 2 4 4 4 3 3 3 3 3 3 0 4 5 5 2 2 2 2 2 2 2 2 3 3 5 5 6 7 7 8 8 8 9 8 9 11 10 8 9 9 14 10 7 5 5 4 5
2 1 3 2 1 5 3 4 2 4 3 3 4 4 3 3 2 2 4 3 1 2 2 4 4 2 1 1 2 4 5 5 6 6 7 7 8 8 8 9 9 9 10 10 10 10 9 8 11 5 5 5 6 6
4 3 2 2 1 2 2 3 3 3 4 4 5 4 3 2 4 4 4 1 1 2 3 3 2 2 1 2 4 4 5 5 6 8 8 7 8 8 8 8 9 9 9 9 9 10 10 8 6 6 6 6 7 8
5 1 2 2 2 4 5 5 7 6 4 5 6 2 2 3 4 6 3 1 1 2 2 2 3 3 2 2 5 5 6 5 6 5 7 6 7 8 10 10 10 9 6 6 9 12 12 11 9 9 7 11 15 10
3 2 1 1 1 2 1 0 1 1 5 6 4 5 4 5 7 1 2 2 1 1 2 3 2 3 4 6 6 5 5 5 4 7 9 10 8 7 7 8 12 9 10 11 11 13 14 13 11 9 9 8 9 8
1 2 1 3 2 2 2 2 3 4 2 2 4 5 6 5 1 1 2 1 1 2 2 3 3 3 4 5 5 5 5 4 7 8 7 6 6 7 8 8 9 24 14 11 11 11 11 12 11 9 9 9 7 7
1 3 3 3 2 1 0 1 1 1 2 1 2 2 2 2 1 2 2 3 2 2 3 3 3 3 3 3 3 3 3 3 7 11 13 11 12 8 10 11 9 9 8 9 19 18 15 11 9 9 9 8 6 5
3 3 3 2 1 1 1 1 2 1 1 2 2 2 2 2 2 3 3 3 3 3 2 2 3 3 4 5 5 6 3 2 1 4 6 10 9 14 13 11 11 10 9 9 9 10 16 11 10 4 4 4 5 5
4 2 3 1 2 1 2 2 2 1 1 1 2 2 2 3 2 3 4 3 3 3 2 3 3 3 4 6 6 6 5 2 8 11 9 9 11 9 12 12 11 9 9 10 9 8 7 3 4 6 5 5 7 7
4 2 2 3 3 3 2 1 1 2 3 1 1 2 2 2 2 1 3 3 2 4 5 4 3 3 4 3 2 3 11 6 8 9 14 11 10 9 11 10 10 10 10 10 9 8 5 4 4 4 3 2 3 5
3 3 2 2 3 5 3 3 1 1 3 2 2 2 2 2 2 1 1 2 2 4 5 4 4 4 4 2 5 6 10 6 11 18 21 22 23 19 10 9 8 10 12 10 11 10 10 9 6 5 4 4 5 5
Wind_Direction
65 60 60 51 36 32 33 34 33 22 11 3 358 359 359 359 213 167 97 175 141 195 243 193 175 158 131 180 166 139 135 177 102 208 224 224 210 186 230 157 191 190 214 194 187 220 276 161 136 280 306 307 310 306
49 49 46 41 22 11 13 11 9 13 9 3 355 344 345 358 352 181 139 159 108 165 278 302 271 279 254 176 132 187 249 170 189 188 212 166 219 173 221 251 192 251 212 258 207 239 289 242 266 290 289 298 298 301
342 350 1 359 356 1 358 349 350 350 349 346 341 344 351 349 353 195 115 141 99 266 278 283 232 203 116 272 289 146 226 202 195 203 158 165 232 169 216 225 210 235 221 248 295 248 266 281 293 294 302 293 300 301
305 303 303 305 308 311 313 330 335 333 329 328 330 333 337 339 344 187 171 182 114 123 245 225 23 239 331 325 283 316 147 84 88 97 198 200 226 193 234 286 243 259 239 269 277 284 288 273 322 307 308 304 305 305
281 273 280 284 284 289 291 303 308 320 329 326 328 324 317 318 323 226 196 200 175 172 258 258 308 192 356 321 191 159 127 119 126 159 202 224 244 251 207 284 248 192 233 233 272 300 308 308 307 301 308 303 308 309
283 286 285 277 275 282 284 282 287 305 317 324 325 341 321 290 237 161 278 54 205 165 316 276 66 359 9 125 146 142 136 144 190 202 213 225 50 218 271 267 229 213 219 237 272 297 303 292 292 297 308 314 313 311
280 282 283 283 288 279 271 276 280 290 310 340 356 359 355 174 131 194 232 308 212 170 226 274 238 108 57 81 55 92 38 189 186 220 227 226 188 206 247 262 268 267 240 283 275 311 300 280 302 307 307 305 310 298
269 272 279 282 279 279 281 276 269 268 285 307 309 335 359 42 80 236 350 12 211 132 175 261 245 223 166 150 156 354 145 128 203 270 224 209 150 210 257 249 286 328 312 292 309 293 274 285 294 294 309 310 311 316
272 267 266 266 272 275 276 279 276 263 267 296 316 326 66 35 43 264 331 329 12 266 263 212 244 281 152 108 104 137 225 224 100 240 218 180 186 226 237 280 263 289 287 291 304 299 289 286 299 304 312 311 310 312
274 276 272 261 264 263 267 270 276 266 238 308 7 38 259 223 316 315 15 257 231 227 234 243 56 205 160 166 137 151 194 246 248 211 133 223 255 257 265 271 281 288 303 345 311 319 321 315 315 311 306 305 296 291
279 278 268 265 266 262 257 259 265 253 121 27 282 235 263 314 355 231 243 215 172 231 219 226 215 184 197 158 193 208 183 177 252 165 222 239 262 254 283 281 260 269 284 269 236 261 270 267 280 293 301 306 307 308
270 275 275 270 266 260 253 248 242 178 169 186 142 65 278 287 212 236 222 206 215 238 200 194 187 215 149 203 197 182 212 169 248 142 223 249 245 257 292 293 295 270 275 277 253 264 281 275 266 274 286 290 298 296
270 270 270 269 267 264 256 247 234 161 132 69 35 30 26 210 233 222 204 213 224 197 181 169 158 155 133 215 165 172 206 220 120 218 237 246 24 276 244 239 264 262 251 249 280 277 274 276 283 263 283 283 281 265
267 267 266 265 263 259 255 251 243 154 106 182 176 232 209 210 228 206 199 187 210 135 153 153 125 166 155 178 172 223 203 160 232 238 239 261 233 228 226 228 258 277 286 265 268 275 280 288 293 292 280 286 272 256
266 265 262 257 254 251 247 242 210 139 153 201 188 224 218 230 263 329 313 292 194 151 139 130 97 181 176 223 205 157 206 240 224 240 242 227 229 230 256 251 256 280 277 302 311 275 280 289 290 300 293 269 248 247
263 263 255 252 249 245 238 233 183 153 230 207 211 247 148 288 271 227 209 244 174 143 110 73 123 188 229 211 185 219 213 229 247 219 244 268 261 282 284 286 292 289 292 288 284 274 275 279 283 291 285 257 240 238
264 245 247 243 241 238 232 161 150 204 228 228 227 205 167 167 211 207 184 207 160 155 195 154 192 218 105 218 226 197 229 254 260 272 273 262 267 284 287 297 289 275 277 276 274 272 273 277 272 269 268 258 229 231
256 254 248 237 233 229 194 189 191 214 217 204 211 217 192 234 245 225 200 164 155 191 155 215 198 204 241 238 258 253 246 260 271 274 277 278 271 275 285 275 281 278 276 278 282 286 290 281 271 264 259 253 221 221
259 251 237 232 226 190 211 205 189 212 203 188 221 203 198 228 232 250 230 177 190 144 167 195 232 218 248 230 243 252 270 277 281 283 284 278 281 291 290 290 279 287 288 291 291 293 294 282 267 271 256 238 228 211
275 261 246 232 216 195 228 217 206 200 188 210 212 225 221 235 248 249 191 157 155 156 207 222 238 248 255 260 267 275 275 291 305 290 287 290 309 319 306 302 295 299 298 300 294 289 288 282 255 248 239 226 222 213
284 261 252 230 209 212 206 202 237 253 165 192 229 217 228 51 233 223 195 148 169 210 236 238 249 255 266 283 11 28 29 2 293 272 291 296 308 304 305 305 301 300 297 297 296 292 298 286 290 260 245 241 222 204
248 281 256 186 199 202 228 29 202 137 197 247 153 159 202 230 233 201 143 192 226 238 231 252 259 281 325 23 356 354 320 330 316 299 299 300 301 309 305 304 306 302 299 298 297 295 295 294 289 267 240 231 209 179
299 212 215 205 175 170 212 134 192 145 193 192 163 180 226 216 229 154 212 212 247 72 51 52 33 15 345 358 1 28 359 347 321 315 309 298 291 290 293 298 300 301 300 297 296 295 293 292 291 281 221 226 175 181
36 260 272 236 180 179 124 169 142 142 128 174 177 216 231 198 175 198 238 235 92 64 53 24 7 357 28 33 11 341 345 337 320 315 308 302 297 300 306 299 296 289 284 295 301 298 296 289 286 270 200 206 189 192
243 216 221 232 50 114 123 129 164 175 193 175 193 204 187 171 178 212 243 308 34 71 35 11 21 37 17 298 306 319 339 344 327 311 299 291 290 295 298 293 291 290 296 293 296 305 306 299 275 253 203 201 202 198
239 204 220 207 181 214 186 182 196 180 156 177 213 111 180 160 173 232 214 69 70 55 11 354 351 3 342 308 312 314 319 326 315 295 289 300 306 302 298 302 306 304 296 293 308 306 304 303 280 257 222 220 219 203
234 239 299 261 191 140 206 172 89 180 187 195 159 167 166 194 223 184 90 42 55 33 311 310 334 295 293 306 306 302 304 301 267 271 287 289 284 271 263 275 289 285 296 290 289 292 291 291 281 256 242 224 219 203
215 11 296 309 295 299 217 197 216 220 201 119 136 187 191 207 205 51 52 33 306 319 319 307 280 284 293 288 289 298 304 314 309 298 281 268 259 265 263 264 267 288 296 295 288 281 276 277 266 252 235 223 213 198
16 331 305 290 281 245 304 255 273 3 351 228 208 214 164 62 14 4 0 351 334 0 12 357 328 313 298 293 279 295 296 330 353 350 342 330 329 325 330 311 293 293 292 286 292 297 289 280 248 237 222 211 204 171
323 342 307 304 283 303 1 328 326 307 35 71 103 109 104 104 66 21 23 17 14 354 324 302 306 352 348 347 345 352 332 337 359 334 316 308 305 306 308 327 323 313 306 300 297 299 306 306 285 210 153 139 145 147
317 325 306 277 279 281 272 304 269 249 76 87 28 82 106 129 134 59 30 2 350 343 3 8 348 356 2 8 5 350 341 338 337 319 300 296 293 318 333 334 332 324 320 319 318 312 312 1 94 124 145 165 180 166
326 350 320 302 300 294 351 5 325 48 10 47 65 92 130 127 99 56 12 351 357 13 353 7 345 325 332 321 336 334 332 325 324 313 315 319 332 340 341 340 345 345 345 349 353 354 10 52 76 90 111 139 139 138
322 343 349 331 325 346 321 21 343 42 29 34 13 34 31 41 120 57 9 12 351 340 332 318 300 298 304 303 11 351 347 327 328 347 343 351 356 1 358 350 8 2 3 8 9 10 14 20 29 33 55 97 108 110